Time,TemperatureF,DewpointF,PressureIn,WindDirection,WindDirectionDegrees,WindSpeedMPH,WindSpeedGustMPH,Humidity,HourlyPrecipIn,Conditions,Clouds,dailyrainin,SoftwareType,DateUTC
2013-05-16 00:06:00,69.1,57.3,29.80,ESE,112,1.7,-999.0,66,-99.99,,,0.00,Acu-Link.com,2013-05-16 05:06:00,
2013-05-16 00:21:00,69.1,57.3,29.82,SSE,157,0.0,-999.0,66,-99.99,,,0.00,Acu-Link.com,2013-05-16 05:21:00,
2013-05-16 00:36:00,68.9,57.5,29.80,SSW,202,0.0,-999.0,67,-99.99,,,0.00,Acu-Link.com,2013-05-16 05:36:00,
2013-05-16 00:51:00,69.1,57.7,29.80,ESE,112,0.0,-999.0,67,-99.99,,,0.00,Acu-Link.com,2013-05-16 05:51:00,
2013-05-16 01:06:00,68.5,57.1,29.80,ESE,112,0.0,-999.0,67,-99.99,,,0.00,Acu-Link.com,2013-05-16 06:06:00,
2013-05-16 01:22:00,68.5,57.5,29.79,ESE,112,2.2,-999.0,68,-99.99,,,0.00,Acu-Link.com,2013-05-16 06:22:00,
2013-05-16 01:37:00,68.5,57.5,29.78,ESE,112,0.0,-999.0,68,-99.99,,,0.00,Acu-Link.com,2013-05-16 06:37:00,
2013-05-16 01:52:00,68.4,57.4,29.77,SSE,157,0.0,-999.0,68,-99.99,,,0.00,Acu-Link.com,2013-05-16 06:52:00,
2013-05-16 02:07:00,68.2,58.8,29.76,SSE,157,0.0,-999.0,72,-99.99,,,0.00,Acu-Link.com,2013-05-16 07:07:00,
2013-05-16 02:22:00,67.5,59.7,29.76,ENE,67,0.0,-999.0,76,-99.99,,,0.00,Acu-Link.com,2013-05-16 07:22:00,
2013-05-16 02:37:00,67.1,59.6,29.75,SSW,202,1.7,-999.0,77,-99.99,,,0.00,Acu-Link.com,2013-05-16 07:37:00,
2013-05-16 02:52:00,66.7,60.0,29.75,SSW,202,0.0,-999.0,79,-99.99,,,0.00,Acu-Link.com,2013-05-16 07:52:00,
2013-05-16 03:08:00,66.4,59.7,29.75,SE,135,0.0,-999.0,79,-99.99,,,0.00,Acu-Link.com,2013-05-16 08:08:00,
2013-05-16 03:23:00,66.2,59.8,29.75,SE,135,0.0,-999.0,80,-99.99,,,0.00,Acu-Link.com,2013-05-16 08:23:00,
2013-05-16 03:38:00,65.7,59.7,29.75,SE,135,0.0,-999.0,81,-99.99,,,0.00,Acu-Link.com,2013-05-16 08:38:00,
2013-05-16 03:53:00,64.9,59.6,29.77,SE,135,0.0,-999.0,83,-99.99,,,0.00,Acu-Link.com,2013-05-16 08:53:00,
2013-05-16 04:08:00,64.6,60.0,29.78,South,180,0.0,-999.0,85,-99.99,,,0.00,Acu-Link.com,2013-05-16 09:08:00,
2013-05-16 04:23:00,63.9,59.6,29.78,South,180,0.0,-999.0,86,-99.99,,,0.00,Acu-Link.com,2013-05-16 09:23:00,
2013-05-16 04:39:00,63.5,59.2,29.79,South,180,0.0,-999.0,86,-99.99,,,0.00,Acu-Link.com,2013-05-16 09:39:00,
2013-05-16 04:54:00,63.5,59.6,29.80,South,180,0.0,-999.0,87,-99.99,,,0.00,Acu-Link.com,2013-05-16 09:54:00,
2013-05-16 05:09:00,63.7,60.1,29.80,South,180,0.0,-999.0,88,-99.99,,,0.00,Acu-Link.com,2013-05-16 10:09:00,
2013-05-16 05:24:00,63.9,60.6,29.80,South,180,0.0,-999.0,89,-99.99,,,0.00,Acu-Link.com,2013-05-16 10:24:00,
2013-05-16 05:39:00,63.7,61.0,29.80,South,180,0.0,-999.0,91,-99.99,,,0.00,Acu-Link.com,2013-05-16 10:39:00,
2013-05-16 05:54:00,63.5,61.1,29.81,South,180,0.0,-999.0,92,-99.99,,,0.00,Acu-Link.com,2013-05-16 10:54:00,
2013-05-16 06:10:00,63.5,61.1,29.81,South,180,0.0,-999.0,92,-99.99,,,0.00,Acu-Link.com,2013-05-16 11:10:00,
2013-05-16 06:25:00,63.9,61.5,29.81,South,180,0.0,-999.0,92,-99.99,,,0.00,Acu-Link.com,2013-05-16 11:25:00,
2013-05-16 06:40:00,64.2,62.1,29.82,NNE,22,0.0,-999.0,93,-99.99,,,0.00,Acu-Link.com,2013-05-16 11:40:00,
2013-05-16 06:55:00,64.4,62.3,29.82,NNE,22,0.0,-999.0,93,-99.99,,,0.00,Acu-Link.com,2013-05-16 11:55:00,
2013-05-16 07:10:00,64.9,62.8,29.82,NNE,22,0.0,-999.0,93,-99.99,,,0.00,Acu-Link.com,2013-05-16 12:10:00,
2013-05-16 07:25:00,65.1,62.7,29.82,NNE,22,0.0,-999.0,92,-99.99,,,0.00,Acu-Link.com,2013-05-16 12:25:00,
2013-05-16 07:40:00,67.3,64.3,29.82,NNE,22,0.0,-999.0,90,-99.99,,,0.00,Acu-Link.com,2013-05-16 12:40:00,
2013-05-16 07:55:00,69.8,64.4,29.82,South,180,0.0,-999.0,83,-99.99,,,0.00,Acu-Link.com,2013-05-16 12:55:00,
2013-05-16 08:10:00,70.3,63.8,29.82,SE,135,0.0,-999.0,80,-99.99,,,0.00,Acu-Link.com,2013-05-16 13:10:00,
2013-05-16 08:26:00,70.2,63.7,29.83,ESE,112,0.0,-999.0,80,-99.99,,,0.00,Acu-Link.com,2013-05-16 13:26:00,
2013-05-16 08:41:00,70.7,63.9,29.82,ESE,112,0.0,-999.0,79,-99.99,,,0.00,Acu-Link.com,2013-05-16 13:41:00,
2013-05-16 08:56:00,74.8,64.3,29.82,East,90,0.0,-999.0,70,-99.99,,,0.00,Acu-Link.com,2013-05-16 13:56:00,
2013-05-16 09:11:00,75.4,64.5,29.81,East,90,1.1,-999.0,69,-99.99,,,0.00,Acu-Link.com,2013-05-16 14:11:00,
2013-05-16 09:26:00,76.3,64.9,29.81,SW,225,1.7,-999.0,68,-99.99,,,0.00,Acu-Link.com,2013-05-16 14:26:00,
2013-05-16 09:41:00,77.5,64.8,29.80,SE,135,1.7,-999.0,65,-99.99,,,0.00,Acu-Link.com,2013-05-16 14:41:00,
2013-05-16 09:56:00,79.3,64.7,29.81,SE,135,2.2,-999.0,61,-99.99,,,0.00,Acu-Link.com,2013-05-16 14:56:00,
2013-05-16 10:11:00,79.3,63.7,29.80,SSE,157,2.2,-999.0,59,-99.99,,,0.00,Acu-Link.com,2013-05-16 15:11:00,
2013-05-16 10:26:00,80.6,64.4,29.81,SSE,157,2.2,-999.0,58,-99.99,,,0.00,Acu-Link.com,2013-05-16 15:26:00,
2013-05-16 10:41:00,80.4,64.7,29.82,ESE,112,3.2,-999.0,59,-99.99,,,0.00,Acu-Link.com,2013-05-16 15:41:00,
2013-05-16 10:57:00,78.8,63.7,29.82,ESE,112,3.7,-999.0,60,-99.99,,,0.00,Acu-Link.com,2013-05-16 15:57:00,
2013-05-16 11:12:00,79.3,63.7,29.81,ESE,112,2.2,-999.0,59,-99.99,,,0.00,Acu-Link.com,2013-05-16 16:12:00,
2013-05-16 11:27:00,78.8,62.8,29.80,West,270,2.7,-999.0,58,-99.99,,,0.00,Acu-Link.com,2013-05-16 16:27:00,
2013-05-16 11:42:00,77.4,62.4,29.80,SSW,202,4.2,-999.0,60,-99.99,,,0.00,Acu-Link.com,2013-05-16 16:42:00,
2013-05-16 11:57:00,76.5,62.5,29.79,ESE,112,1.1,-999.0,62,-99.99,,,0.00,Acu-Link.com,2013-05-16 16:57:00,
2013-05-16 12:12:00,76.1,62.1,29.78,SSW,202,1.7,-999.0,62,-99.99,,,0.00,Acu-Link.com,2013-05-16 17:12:00,
2013-05-16 12:27:00,77.9,62.4,29.76,SW,225,2.2,-999.0,59,-99.99,,,0.00,Acu-Link.com,2013-05-16 17:27:00,
2013-05-16 12:42:00,78.3,61.8,29.77,SE,135,0.0,-999.0,57,-99.99,,,0.00,Acu-Link.com,2013-05-16 17:42:00,
2013-05-16 12:57:00,78.8,62.3,29.77,NE,45,1.7,-999.0,57,-99.99,,,0.00,Acu-Link.com,2013-05-16 17:57:00,
2013-05-16 13:13:00,78.8,61.8,29.77,SSE,157,2.2,-999.0,56,-99.99,,,0.00,Acu-Link.com,2013-05-16 18:13:00,
2013-05-16 13:28:00,77.7,60.7,29.77,SSE,157,2.2,-999.0,56,-99.99,,,0.00,Acu-Link.com,2013-05-16 18:28:00,
2013-05-16 13:43:00,77.4,60.5,29.76,ESE,112,4.2,-999.0,56,-99.99,,,0.00,Acu-Link.com,2013-05-16 18:43:00,
2013-05-16 13:58:00,78.6,59.5,29.76,ESE,112,3.2,-999.0,52,-99.99,,,0.00,Acu-Link.com,2013-05-16 18:58:00,
2013-05-16 14:13:00,77.5,59.0,29.76,East,90,0.0,-999.0,53,-99.99,,,0.00,Acu-Link.com,2013-05-16 19:13:00,
2013-05-16 14:28:00,77.2,59.8,29.76,ESE,112,4.7,-999.0,55,-99.99,,,0.00,Acu-Link.com,2013-05-16 19:28:00,
2013-05-16 14:44:00,77.2,60.3,29.76,ESE,112,2.7,-999.0,56,-99.99,,,0.00,Acu-Link.com,2013-05-16 19:44:00,
2013-05-16 14:59:00,78.8,61.2,29.75,ESE,112,2.7,-999.0,55,-99.99,,,0.00,Acu-Link.com,2013-05-16 19:59:00,
2013-05-16 15:14:00,77.9,60.4,29.76,NE,45,4.2,-999.0,55,-99.99,,,0.00,Acu-Link.com,2013-05-16 20:14:00,
2013-05-16 15:29:00,79.2,60.0,29.75,South,180,2.7,-999.0,52,-99.99,,,0.00,Acu-Link.com,2013-05-16 20:29:00,
2013-05-16 15:44:00,77.2,59.2,29.74,SSE,157,4.2,-999.0,54,-99.99,,,0.00,Acu-Link.com,2013-05-16 20:44:00,
2013-05-16 15:59:00,77.2,59.2,29.75,ESE,112,2.7,-999.0,54,-99.99,,,0.00,Acu-Link.com,2013-05-16 20:59:00,
2013-05-16 16:14:00,76.6,59.2,29.76,South,180,2.7,-999.0,55,-99.99,,,0.00,Acu-Link.com,2013-05-16 21:14:00,
2013-05-16 16:29:00,75.7,58.4,29.76,SSE,157,2.7,-999.0,55,-99.99,,,0.00,Acu-Link.com,2013-05-16 21:29:00,
2013-05-16 16:44:00,76.1,59.7,29.76,NNW,337,2.7,-999.0,57,-99.99,,,0.00,Acu-Link.com,2013-05-16 21:44:00,
2013-05-16 17:00:00,77.2,59.8,29.76,ESE,112,2.2,-999.0,55,-99.99,,,0.00,Acu-Link.com,2013-05-16 22:00:00,
2013-05-16 17:15:00,75.9,59.6,29.75,SSE,157,1.7,-999.0,57,-99.99,,,0.00,Acu-Link.com,2013-05-16 22:15:00,
2013-05-16 17:30:00,77.0,60.1,29.75,WNW,292,2.7,-999.0,56,-99.99,,,0.00,Acu-Link.com,2013-05-16 22:30:00,
2013-05-16 17:45:00,76.6,60.2,29.75,ENE,67,2.2,-999.0,57,-99.99,,,0.00,Acu-Link.com,2013-05-16 22:45:00,
2013-05-16 18:00:00,75.9,60.5,29.75,SE,135,1.1,-999.0,59,-99.99,,,0.00,Acu-Link.com,2013-05-16 23:00:00,
2013-05-16 18:15:00,75.4,61.5,29.74,SE,135,2.2,-999.0,62,-99.99,,,0.00,Acu-Link.com,2013-05-16 23:15:00,
2013-05-16 18:30:00,74.7,61.7,29.76,ESE,112,0.0,-999.0,64,-99.99,,,0.00,Acu-Link.com,2013-05-16 23:30:00,
2013-05-16 18:46:00,73.6,60.7,29.76,ESE,112,0.0,-999.0,64,-99.99,,,0.00,Acu-Link.com,2013-05-16 23:46:00,
2013-05-16 19:01:00,72.5,60.9,29.75,SSE,157,1.1,-999.0,67,-99.99,,,0.00,Acu-Link.com,2013-05-17 00:01:00,
2013-05-16 19:16:00,71.8,60.7,29.75,SSE,157,1.1,-999.0,68,-99.99,,,0.00,Acu-Link.com,2013-05-17 00:16:00,
2013-05-16 19:31:00,70.7,60.0,29.74,SSE,157,2.2,-999.0,69,-99.99,,,0.00,Acu-Link.com,2013-05-17 00:31:00,
2013-05-16 19:46:00,70.3,60.4,29.73,SSW,202,2.2,-999.0,71,-99.99,,,0.00,Acu-Link.com,2013-05-17 00:46:00,
2013-05-16 20:01:00,69.8,60.4,29.73,NE,45,0.0,-999.0,72,-99.99,,,0.00,Acu-Link.com,2013-05-17 01:01:00,
2013-05-16 20:16:00,69.3,60.3,29.73,SE,135,0.0,-999.0,73,-99.99,,,0.00,Acu-Link.com,2013-05-17 01:16:00,
2013-05-16 20:31:00,69.1,60.8,29.74,ENE,67,2.7,-999.0,75,-99.99,,,0.00,Acu-Link.com,2013-05-17 01:31:00,
2013-05-16 20:46:00,68.7,60.8,29.74,East,90,0.0,-999.0,76,-99.99,,,0.00,Acu-Link.com,2013-05-17 01:46:00,
2013-05-16 21:02:00,68.5,61.0,29.73,East,90,1.7,-999.0,77,-99.99,,,0.00,Acu-Link.com,2013-05-17 02:02:00,
2013-05-16 21:17:00,68.4,61.3,29.74,East,90,0.0,-999.0,78,-99.99,,,0.00,Acu-Link.com,2013-05-17 02:17:00,
2013-05-16 21:32:00,68.0,60.9,29.76,SSE,157,0.0,-999.0,78,-99.99,,,0.00,Acu-Link.com,2013-05-17 02:32:00,
2013-05-16 21:47:00,67.8,61.0,29.76,NNE,22,0.0,-999.0,79,-99.99,,,0.00,Acu-Link.com,2013-05-17 02:47:00,
2013-05-16 22:02:00,67.5,61.5,29.76,NNE,22,0.0,-999.0,81,-99.99,,,0.00,Acu-Link.com,2013-05-17 03:02:00,
2013-05-16 22:17:00,67.5,61.1,29.77,NNE,22,0.0,-999.0,80,-99.99,,,0.00,Acu-Link.com,2013-05-17 03:17:00,
2013-05-16 22:32:00,67.3,61.3,29.77,NE,45,0.0,-999.0,81,-99.99,,,0.00,Acu-Link.com,2013-05-17 03:32:00,
2013-05-16 22:47:00,67.1,61.8,29.77,NE,45,0.0,-999.0,83,-99.99,,,0.00,Acu-Link.com,2013-05-17 03:47:00,
2013-05-16 23:02:00,67.1,61.8,29.77,ESE,112,0.0,-999.0,83,-99.99,,,0.00,Acu-Link.com,2013-05-17 04:02:00,
2013-05-16 23:18:00,67.1,61.8,29.76,NNE,22,0.0,-999.0,83,-99.99,,,0.00,Acu-Link.com,2013-05-17 04:18:00,
2013-05-16 23:33:00,67.1,62.4,29.76,SE,135,0.0,-999.0,85,-99.99,,,0.00,Acu-Link.com,2013-05-17 04:33:00,
2013-05-16 23:48:00,66.9,62.2,29.76,East,90,0.0,-999.0,85,-99.99,,,0.00,Acu-Link.com,2013-05-17 04:48:00,